OEEKZ LOWS-LSZA

Flight info

Callsign OEEKZ
Flight time 0h 56m
Altitude 24000
Route RTT Y107 BAKOR M984 LUSIL
Aircraft SF50/L-BDGRSWY/LB2U2

Departure

Time 2026-04-28 16:33
Airport Salzburg Airport (LOWS)

Arrival

Time 2026-04-28 17:30
Airport Lugano Airport (LSZA)
Time Latitude Longitude Altitude Speed Heading
2026-04-28 16:19 47.79542 12.99747 0 ft 0 kts 338°
2026-04-28 16:29 47.79562 12.99742 1414 ft 7 kts 28°
2026-04-28 16:29 47.79546 12.99845 1414 ft 9 kts 137°
2026-04-28 16:30 47.79559 12.99937 1414 ft 12 kts 71°
2026-04-28 16:30 47.79505 13.00017 1414 ft 13 kts 153°
2026-04-28 16:30 47.79414 13.00077 1414 ft 16 kts 156°
2026-04-28 16:30 47.79303 13.00145 1414 ft 19 kts 158°
2026-04-28 16:31 47.79167 13.00231 1414 ft 23 kts 158°
2026-04-28 16:31 47.79008 13.00330 1413 ft 26 kts 159°
2026-04-28 16:31 47.78836 13.00440 1413 ft 25 kts 157°
2026-04-28 16:31 47.78694 13.00530 1414 ft 20 kts 156°
2026-04-28 16:32 47.78582 13.00601 1414 ft 15 kts 158°
2026-04-28 16:32 47.78557 13.00817 1413 ft 14 kts 68°
2026-04-28 16:32 47.78670 13.00812 1414 ft 36 kts 336°
2026-04-28 16:33 47.79083 13.00550 1414 ft 92 kts 337°
2026-04-28 16:33 47.79289 13.00419 1428 ft 105 kts 335°
2026-04-28 16:33 47.80225 12.99800 1864 ft 115 kts 336°
2026-04-28 16:33 47.80964 12.99310 2258 ft 117 kts 333°
2026-04-28 16:34 47.81723 12.98767 2627 ft 129 kts 334°
2026-04-28 16:34 47.82542 12.98102 3049 ft 144 kts 313°
2026-04-28 16:34 47.83028 12.96687 3356 ft 166 kts 295°
2026-04-28 16:34 47.83611 12.95204 3931 ft 169 kts 300°
2026-04-28 16:35 47.84386 12.93124 4610 ft 175 kts 293°
2026-04-28 16:35 47.84535 12.91929 4959 ft 176 kts 265°
2026-04-28 16:35 47.83999 12.90349 5488 ft 175 kts 224°
2026-04-28 16:35 47.83147 12.89034 5949 ft 178 kts 233°
2026-04-28 16:36 47.82486 12.87471 6430 ft 179 kts 239°
2026-04-28 16:36 47.81843 12.85878 6885 ft 180 kts 238°
2026-04-28 16:36 47.81192 12.84305 7330 ft 181 kts 238°
2026-04-28 16:36 47.80528 12.82703 7761 ft 183 kts 238°
2026-04-28 16:37 47.79857 12.81090 8194 ft 184 kts 238°
2026-04-28 16:37 47.79183 12.79463 8609 ft 185 kts 238°
2026-04-28 16:37 47.78503 12.77830 9023 ft 186 kts 238°
2026-04-28 16:38 47.77131 12.74530 9823 ft 189 kts 238°
2026-04-28 16:38 47.76437 12.72864 10210 ft 190 kts 238°
2026-04-28 16:38 47.75741 12.71194 10594 ft 191 kts 238°
2026-04-28 16:38 47.74857 12.69738 10931 ft 193 kts 212°
2026-04-28 16:39 47.73655 12.68849 11290 ft 193 kts 206°
2026-04-28 16:39 47.72474 12.67882 11677 ft 194 kts 211°
2026-04-28 16:39 47.71290 12.66904 12045 ft 196 kts 208°
2026-04-28 16:39 47.70095 12.65927 12417 ft 197 kts 210°
2026-04-28 16:40 47.68910 12.64890 12773 ft 198 kts 211°
2026-04-28 16:40 47.67718 12.63849 13143 ft 199 kts 211°
2026-04-28 16:40 47.66518 12.62802 13506 ft 200 kts 211°
2026-04-28 16:40 47.65314 12.61753 13867 ft 201 kts 211°
2026-04-28 16:41 47.64102 12.60701 14224 ft 203 kts 210°
2026-04-28 16:41 47.62882 12.59637 14582 ft 204 kts 211°
2026-04-28 16:41 47.61653 12.58570 14925 ft 205 kts 211°
2026-04-28 16:41 47.60421 12.57495 15277 ft 206 kts 211°
2026-04-28 16:42 47.59182 12.56417 15637 ft 207 kts 211°
2026-04-28 16:42 47.57933 12.55333 15984 ft 209 kts 210°
2026-04-28 16:42 47.56678 12.54243 16321 ft 210 kts 211°
2026-04-28 16:42 47.55415 12.53148 16659 ft 211 kts 210°
2026-04-28 16:43 47.54147 12.52047 17005 ft 212 kts 211°
2026-04-28 16:43 47.52871 12.50939 17337 ft 213 kts 210°
2026-04-28 16:43 47.51604 12.49843 17666 ft 214 kts 210°
2026-04-28 16:43 47.50313 12.48725 17994 ft 215 kts 210°
2026-04-28 16:44 47.49016 12.47602 18319 ft 217 kts 210°
2026-04-28 16:44 47.47709 12.46478 18645 ft 218 kts 210°
2026-04-28 16:44 47.46396 12.45344 18959 ft 219 kts 210°
2026-04-28 16:44 47.45078 12.44204 19289 ft 220 kts 210°
2026-04-28 16:45 47.43749 12.43057 19612 ft 221 kts 210°
2026-04-28 16:45 47.42415 12.41906 19936 ft 223 kts 210°
2026-04-28 16:45 47.41072 12.40752 20253 ft 224 kts 210°
2026-04-28 16:45 47.39723 12.39591 20562 ft 225 kts 210°
2026-04-28 16:46 47.38365 12.38421 20879 ft 226 kts 210°
2026-04-28 16:46 47.37007 12.37254 21217 ft 226 kts 210°
2026-04-28 16:46 47.35652 12.36090 21554 ft 225 kts 210°
2026-04-28 16:46 47.34296 12.34924 21888 ft 225 kts 210°
2026-04-28 16:47 47.32944 12.33762 22220 ft 225 kts 210°
2026-04-28 16:47 47.31595 12.32601 22563 ft 224 kts 210°
2026-04-28 16:47 47.30245 12.31444 22894 ft 224 kts 210°
2026-04-28 16:47 47.28898 12.30289 23223 ft 224 kts 210°
2026-04-28 16:48 47.27568 12.29149 23555 ft 224 kts 210°
2026-04-28 16:48 47.26225 12.27999 23884 ft 223 kts 210°
2026-04-28 16:48 47.24860 12.26830 23997 ft 233 kts 210°
2026-04-28 16:48 47.23417 12.25595 24011 ft 246 kts 210°
2026-04-28 16:49 47.21903 12.24301 24009 ft 257 kts 210°
2026-04-28 16:49 47.20331 12.22958 24013 ft 265 kts 210°
2026-04-28 16:49 47.18714 12.21577 24012 ft 273 kts 210°
2026-04-28 16:49 47.17054 12.20160 24009 ft 279 kts 210°
2026-04-28 16:50 47.15359 12.18716 24012 ft 284 kts 210°
2026-04-28 16:50 47.13639 12.17255 24008 ft 287 kts 210°
2026-04-28 16:50 47.11899 12.15773 24012 ft 290 kts 210°
2026-04-28 16:50 47.10146 12.14284 24012 ft 292 kts 210°
2026-04-28 16:51 47.08377 12.12779 24012 ft 295 kts 210°
2026-04-28 16:51 47.06595 12.11268 24011 ft 297 kts 210°
2026-04-28 16:51 47.04801 12.09746 24007 ft 299 kts 210°
2026-04-28 16:51 47.02998 12.08218 24009 ft 300 kts 210°
2026-04-28 16:52 47.01180 12.06679 24010 ft 302 kts 210°
2026-04-28 16:52 46.99356 12.05137 24010 ft 303 kts 210°
2026-04-28 16:52 46.97548 12.03607 24011 ft 304 kts 210°
2026-04-28 16:52 46.95688 12.02034 24011 ft 306 kts 210°
2026-04-28 16:53 46.93866 12.00498 24010 ft 307 kts 210°
2026-04-28 16:53 46.91988 11.98913 24010 ft 308 kts 210°
2026-04-28 16:53 46.90156 11.97369 24010 ft 308 kts 210°
2026-04-28 16:53 46.88295 11.95801 24011 ft 309 kts 210°
2026-04-28 16:54 46.86543 11.94005 23994 ft 309 kts 225°
2026-04-28 16:54 46.85306 11.91404 23994 ft 309 kts 242°
2026-04-28 16:54 46.84351 11.88592 23999 ft 309 kts 243°
2026-04-28 16:54 46.83682 11.86762 23998 ft 309 kts 240°
2026-04-28 16:55 46.82120 11.83286 23998 ft 309 kts 235°
2026-04-28 16:55 46.80909 11.80687 23998 ft 310 kts 237°
2026-04-28 16:55 46.79767 11.78019 23998 ft 310 kts 238°
2026-04-28 16:55 46.78622 11.75350 23998 ft 310 kts 237°
2026-04-28 16:56 46.77448 11.72740 23998 ft 310 kts 236°
2026-04-28 16:56 46.76269 11.70104 23999 ft 311 kts 237°
2026-04-28 16:56 46.75103 11.67442 23999 ft 311 kts 237°
2026-04-28 16:56 46.73935 11.64789 23999 ft 311 kts 237°
2026-04-28 16:57 46.72758 11.62136 23998 ft 311 kts 237°
2026-04-28 16:57 46.71581 11.59485 23999 ft 311 kts 237°
2026-04-28 16:57 46.70408 11.56835 23999 ft 311 kts 237°
2026-04-28 16:57 46.69229 11.54180 24000 ft 312 kts 237°
2026-04-28 16:58 46.68048 11.51523 23998 ft 312 kts 237°
2026-04-28 16:58 46.66868 11.48868 23999 ft 312 kts 237°
2026-04-28 16:58 46.65703 11.46250 24000 ft 312 kts 237°
2026-04-28 16:58 46.64504 11.43563 24000 ft 312 kts 237°
2026-04-28 16:59 46.63339 11.40948 24000 ft 312 kts 237°
2026-04-28 16:59 46.62155 11.38295 24000 ft 313 kts 237°
2026-04-28 16:59 46.60968 11.35640 24000 ft 313 kts 237°
2026-04-28 16:59 46.59781 11.32986 24000 ft 313 kts 237°
2026-04-28 17:00 46.58593 11.30334 24000 ft 313 kts 237°
2026-04-28 17:00 46.57404 11.27681 24000 ft 313 kts 237°
2026-04-28 17:00 46.56217 11.25034 24000 ft 313 kts 237°
2026-04-28 17:00 46.55035 11.22395 24000 ft 310 kts 237°
2026-04-28 17:01 46.53855 11.19771 23998 ft 310 kts 237°
2026-04-28 17:01 46.52690 11.17183 23998 ft 310 kts 237°
2026-04-28 17:01 46.51511 11.14559 23999 ft 311 kts 237°
2026-04-28 17:01 46.50325 11.11930 23999 ft 311 kts 237°
2026-04-28 17:02 46.49141 11.09304 23999 ft 311 kts 237°
2026-04-28 17:02 46.48338 11.07524 24000 ft 311 kts 237°
2026-04-28 17:02 46.46765 11.04040 24000 ft 312 kts 237°
2026-04-28 17:02 46.45574 11.01407 24000 ft 312 kts 237°
2026-04-28 17:03 46.43189 10.96144 24001 ft 312 kts 236°
2026-04-28 17:03 46.41997 10.93512 23999 ft 312 kts 236°
2026-04-28 17:03 46.40820 10.90917 24000 ft 312 kts 236°
2026-04-28 17:04 46.38427 10.85661 24000 ft 313 kts 236°
2026-04-28 17:04 46.37229 10.83031 24000 ft 312 kts 236°
2026-04-28 17:05 46.34838 10.77781 24000 ft 313 kts 236°
2026-04-28 17:05 46.33635 10.75150 24000 ft 313 kts 236°
2026-04-28 17:05 46.32435 10.72524 24001 ft 313 kts 236°
2026-04-28 17:06 46.30030 10.67273 24000 ft 313 kts 236°
2026-04-28 17:06 46.28827 10.64647 24001 ft 313 kts 236°
2026-04-28 17:06 46.26419 10.59399 24001 ft 313 kts 236°
2026-04-28 17:07 46.25213 10.56778 24001 ft 313 kts 236°
2026-04-28 17:07 46.24007 10.54157 24002 ft 313 kts 236°
2026-04-28 17:07 46.22817 10.51571 24001 ft 313 kts 236°
2026-04-28 17:07 46.21613 10.48957 24002 ft 313 kts 236°
2026-04-28 17:08 46.20405 10.46339 24001 ft 313 kts 236°
2026-04-28 17:08 46.19199 10.43726 24002 ft 313 kts 236°
2026-04-28 17:08 46.17993 10.41114 24001 ft 313 kts 236°
2026-04-28 17:08 46.16784 10.38504 24002 ft 313 kts 236°
2026-04-28 17:09 46.15574 10.35890 24002 ft 313 kts 236°
2026-04-28 17:09 46.14366 10.33279 24001 ft 313 kts 236°
2026-04-28 17:09 46.13545 10.31511 24001 ft 313 kts 236°
2026-04-28 17:09 46.12959 10.30250 24001 ft 313 kts 236°
2026-04-28 17:10 46.11749 10.27642 24002 ft 313 kts 236°
2026-04-28 17:10 46.10537 10.25032 24001 ft 313 kts 236°
2026-04-28 17:10 46.09323 10.22425 24001 ft 313 kts 236°
2026-04-28 17:10 46.08111 10.19824 24001 ft 313 kts 236°
2026-04-28 17:11 46.06896 10.17214 24002 ft 313 kts 236°
2026-04-28 17:11 46.05683 10.14614 24001 ft 313 kts 236°
2026-04-28 17:11 46.04432 10.12055 23996 ft 312 kts 230°
2026-04-28 17:11 46.02849 10.09927 23995 ft 311 kts 219°
2026-04-28 17:12 46.01165 10.07962 23998 ft 312 kts 219°
2026-04-28 17:12 45.99496 10.05975 23998 ft 311 kts 220°
2026-04-28 17:12 45.97826 10.03991 23997 ft 311 kts 219°
2026-04-28 17:12 45.96150 10.02014 23998 ft 311 kts 219°
2026-04-28 17:13 45.94497 10.00063 23997 ft 311 kts 219°
2026-04-28 17:13 45.92803 9.98064 23998 ft 312 kts 219°
2026-04-28 17:13 45.91122 9.96081 23997 ft 312 kts 219°
2026-04-28 17:13 45.89467 9.94134 23998 ft 312 kts 219°
2026-04-28 17:14 45.87766 9.92132 23998 ft 312 kts 219°
2026-04-28 17:14 45.86110 9.90185 23997 ft 312 kts 219°
2026-04-28 17:14 45.84432 9.88212 23998 ft 312 kts 219°
2026-04-28 17:14 45.82754 9.86240 23998 ft 312 kts 219°
2026-04-28 17:15 45.81071 9.84267 23998 ft 312 kts 219°
2026-04-28 17:15 45.79392 9.82297 23998 ft 312 kts 219°
2026-04-28 17:15 45.77712 9.80328 23998 ft 312 kts 219°
2026-04-28 17:15 45.76030 9.78359 23997 ft 312 kts 219°
2026-04-28 17:16 45.74347 9.76389 23998 ft 312 kts 219°
2026-04-28 17:16 45.72662 9.74420 23998 ft 312 kts 219°
2026-04-28 17:16 45.71082 9.72303 23991 ft 311 kts 230°
2026-04-28 17:16 45.69900 9.69712 23994 ft 311 kts 243°
2026-04-28 17:17 45.69173 9.66803 23991 ft 312 kts 256°
2026-04-28 17:17 45.68939 9.63725 23993 ft 312 kts 270°
2026-04-28 17:17 45.69214 9.60646 23991 ft 313 kts 283°
2026-04-28 17:17 45.69907 9.57704 23995 ft 312 kts 289°
2026-04-28 17:18 45.70636 9.54773 23996 ft 312 kts 289°
2026-04-28 17:18 45.71352 9.51841 23996 ft 313 kts 289°
2026-04-28 17:18 45.72076 9.48901 23997 ft 313 kts 289°
2026-04-28 17:18 45.72802 9.45960 23996 ft 313 kts 289°
2026-04-28 17:19 45.73514 9.43063 23996 ft 313 kts 289°
2026-04-28 17:19 45.74237 9.40124 23997 ft 313 kts 289°
2026-04-28 17:19 45.74726 9.38134 23997 ft 313 kts 289°
2026-04-28 17:19 45.74960 9.37179 23997 ft 313 kts 289°
2026-04-28 17:20 45.75681 9.34234 23997 ft 313 kts 289°
2026-04-28 17:20 45.76158 9.32282 23996 ft 313 kts 289°
2026-04-28 17:20 45.77122 9.28345 23996 ft 313 kts 289°
2026-04-28 17:20 45.77598 9.26394 23855 ft 313 kts 289°
2026-04-28 17:21 45.78315 9.23456 23275 ft 311 kts 289°
2026-04-28 17:21 45.79025 9.20544 22539 ft 307 kts 289°
2026-04-28 17:21 45.79724 9.17665 21757 ft 304 kts 289°
2026-04-28 17:22 45.81104 9.11964 20370 ft 302 kts 288°
2026-04-28 17:22 45.81779 9.09143 19806 ft 289 kts 288°
2026-04-28 17:22 45.82376 9.06622 19269 ft 268 kts 288°
2026-04-28 17:23 45.83456 9.01903 18377 ft 234 kts 288°
2026-04-28 17:23 45.83987 8.99628 17322 ft 246 kts 288°
2026-04-28 17:23 45.84534 8.97285 16232 ft 254 kts 288°
2026-04-28 17:23 45.85099 8.94860 15133 ft 258 kts 288°
2026-04-28 17:24 45.85666 8.92410 14002 ft 260 kts 288°
2026-04-28 17:24 45.86240 8.89948 12840 ft 260 kts 288°
2026-04-28 17:24 45.87099 8.87696 11665 ft 259 kts 310°
2026-04-28 17:24 45.88566 8.86234 10491 ft 259 kts 338°
2026-04-28 17:25 45.90328 8.85904 9320 ft 257 kts
2026-04-28 17:25 45.93584 8.87520 7970 ft 212 kts
2026-04-28 17:25 45.94832 8.87106 8207 ft 179 kts 321°
2026-04-28 17:26 45.95416 8.85571 7978 ft 179 kts 271°
2026-04-28 17:26 45.94935 8.84033 7790 ft 167 kts 216°
2026-04-28 17:26 45.93821 8.83726 7296 ft 179 kts 164°
2026-04-28 17:26 45.92799 8.84777 6452 ft 194 kts 132°
2026-04-28 17:27 45.92128 8.86537 5223 ft 214 kts 101°
2026-04-28 17:27 45.92532 8.88484 4419 ft 206 kts 48°
2026-04-28 17:27 45.93844 8.89373 3242 ft 216 kts
2026-04-28 17:27 45.95279 8.89180 2751 ft 190 kts 346°
2026-04-28 17:28 45.96413 8.88923 2619 ft 151 kts
2026-04-28 17:28 45.98070 8.89918 1462 ft 109 kts 24°
2026-04-28 17:28 45.98752 8.90266 1269 ft 103 kts 15°
2026-04-28 17:29 45.99435 8.90569 1110 ft 101 kts 18°
2026-04-28 17:29 46.00057 8.90877 904 ft 88 kts 19°
2026-04-28 17:29 46.00536 8.91114 901 ft 52 kts 17°
2026-04-28 17:30 46.00701 8.91195 896 ft 7 kts 195°
2026-04-28 17:30 46.00559 8.91124 900 ft 17 kts 200°
2026-04-28 17:30 46.00459 8.91074 900 ft 11 kts 220°
2026-04-28 17:31 46.00459 8.90979 897 ft 11 kts 258°
2026-04-28 17:31 46.00328 8.90897 897 ft 10 kts 200°
2026-04-28 17:32 46.00226 8.90849 897 ft 4 kts 197°
2026-04-28 17:32 46.00212 8.90840 897 ft 7 kts 225°
2026-04-28 17:32 46.00221 8.90754 897 ft 7 kts 240°
2026-04-28 17:32 46.00205 8.90734 897 ft 4 kts 193°
2026-04-28 17:33 46.00194 8.90728 897 ft 0 kts 201°